GW4886 Weather Reports


time (UTC)temp
F
wind
direction
speed
knots
gust
knots
rain 1hr
in
rain 24hr
in
rain mn
in
humidity
%
barometer
mb
20260504033412 44 341 0.0 0.0 0.00 0.00 0.00 77 1017.2
20260504032908 44 341 0.0 0.0 0.00 0.00 0.00 73 1016.9
20260504032405 44 342 0.0 0.9 0.00 0.00 0.00 77 1016.9
20260504031901 45 343 0.9 0.9 0.00 0.00 0.00 70 1017.0
20260504031359 45 343 0.9 0.9 0.00 0.00 0.00 72 1017.0
20260504030855 46 248 0.9 1.7 0.00 0.00 0.00 53 1016.9
20260504030353 45 266 0.0 0.0 0.00 0.00 0.00 64 1017.1
20260504025848 45 266 0.0 0.0 0.00 0.00 0.00 64 1017.2
20260504025346 45 266 0.0 0.0 0.00 0.00 0.00 64 1017.0
20260504024842 45 266 0.0 0.0 0.00 0.00 0.00 63 1016.8
20260504024338 45 266 0.9 0.9 0.00 0.00 0.00 62 1017.1
20260504023836 45 266 0.9 0.9 0.00 0.00 0.00 67 1017.0
20260504023333 46 266 0.0 0.0 0.00 0.00 0.00 67 1017.0
20260504022828 46 266 0.0 0.9 0.00 0.00 0.00 60 1017.2
20260504022325 46 273 1.7 2.6 0.00 0.00 0.00 60 1017.1
20260504021822 45 252 0.9 1.7 0.00 0.00 0.00 67 1017.2
20260504021320 46 279 0.0 0.9 0.00 0.00 0.00 64 1017.3
20260504020816 45 277 0.9 0.9 0.00 0.00 0.00 67 1017.0
20260504020313 45 251 0.0 0.0 0.00 0.00 0.00 67 1017.0
20260504015809 46 274 0.0 0.0 0.00 0.00 0.00 63 1017.1
20260504015305 46 274 0.9 0.9 0.00 0.00 0.00 59 1017.0
20260504014801 46 256 0.0 0.0 0.00 0.00 0.00 69 1016.8
20260504014257 46 104 0.0 0.9 0.00 0.00 0.00 62 1017.0
20260504013755 46 265 0.9 0.9 0.00 0.00 0.00 56 1017.2
20260504013253 46 266 0.0 0.0 0.00 0.00 0.00 63 1016.9
20260504012749 46 266 0.0 0.0 0.00 0.00 0.00 62 1016.7
20260504012247 46 266 0.0 0.0 0.00 0.00 0.00 59 1016.7
20260504011744 46 266 0.0 0.9 0.00 0.00 0.00 61 1016.7
20260504011240 46 266 0.0 0.0 0.00 0.00 0.00 61 1016.8
20260504010737 48 248 1.7 1.7 0.00 0.00 0.00 51 1016.8
20260504010232 47 264 1.7 2.6 0.00 0.00 0.00 52 1016.5
20260504005729 47 269 1.7 2.6 0.00 0.00 0.00 53 1016.5
20260504005226 47 260 1.7 2.6 0.00 0.00 0.00 55 1016.5
20260504004724 47 259 1.7 2.6 0.00 0.00 0.00 53 1016.2
20260504004221 47 262 2.6 2.6 0.00 0.00 0.00 47 1016.3
20260504003717 46 271 2.6 2.6 0.00 0.00 0.00 54 1016.3
20260504003215 47 253 2.6 2.6 0.00 0.00 0.00 52 1016.1
20260504002711 47 267 1.7 2.6 0.00 0.00 0.00 51 1016.2
20260504002208 47 266 2.6 2.6 0.00 0.00 0.00 51 1016.2
20260504001706 48 257 2.6 2.6 0.00 0.00 0.00 51 1016.1
20260504001202 48 262 1.7 2.6 0.00 0.00 0.00 48 1016.2
20260504000659 48 264 2.6 2.6 0.00 0.00 0.00 48 1016.6
20260504000156 49 258 2.6 2.6 0.00 0.00 0.00 50 1016.2
20260503235654 50 275 0.9 2.6 0.00 0.00 0.00 43 1016.3
20260503235151 53 280 1.7 2.6 0.00 0.00 0.00 39 1016.1
20260503234649 52 275 2.6 3.5 0.00 0.00 0.00 38 1016.1
20260503234147 53 300 2.6 3.5 0.00 0.00 0.00 37 1016.2
20260503233643 52 282 1.7 2.6 0.00 0.00 0.00 39 1016.3
20260503233139 52 284 0.9 2.6 0.00 0.00 0.00 38 1016.3
20260503232636 53 265 0.9 3.5 0.00 0.00 0.00 36 1016.1
20260503232134 53 356 1.7 1.7 0.00 0.00 0.00 37 1016.0
20260503231632 53 289 0.0 0.9 0.00 0.00 0.00 43 1016.2
20260503231128 55 298 3.5 3.5 0.00 0.00 0.00 42 1016.2
20260503230625 55 248 0.9 2.6 0.00 0.00 0.00 31 1016.3
20260503230122 56 248 3.5 7.0 0.00 0.00 0.00 30 1016.2
20260503225620 56 311 1.7 5.2 0.00 0.00 0.00 33 1016.3
20260503225119 58 309 2.6 2.6 0.00 0.00 0.00 32 1016.5
20260503224617 57 279 1.7 5.2 0.00 0.00 0.00 28 1016.3
20260503224114 57 273 5.2 7.0 0.00 0.00 0.00 31 1016.2
20260503223612 56 296 3.5 6.1 0.00 0.00 0.00 31 1016.3
20260503223108 57 18 2.6 2.6 0.00 0.00 0.00 37 1015.9
20260503222606 57 289 2.6 5.2 0.00 0.00 0.00 32 1016.2
20260503222103 57 255 0.9 3.5 0.00 0.00 0.00 33 1016.2
20260503221601 56 326 2.6 6.1 0.00 0.00 0.00 36 1016.5
20260503221058 58 272 1.7 5.2 0.00 0.00 0.00 30 1016.3
20260503220554 58 243 3.5 5.2 0.00 0.00 0.00 28 1016.3
20260503220052 56 33 3.5 5.2 0.00 0.00 0.00 32 1016.3
20260503215548 56 19 5.2 6.1 0.00 0.00 0.00 33 1016.3
20260503215045 57 289 2.6 3.5 0.00 0.00 0.00 33 1016.3
20260503214544 57 354 0.0 3.5 0.00 0.00 0.00 28 1016.2
20260503214040 57 289 1.7 2.6 0.00 0.00 0.00 30 1016.5
20260503213539 57 262 0.9 3.5 0.00 0.00 0.00 29 1016.5
20260503213035 56 303 1.7 3.5 0.00 0.00 0.00 35 1016.3
20260503212532 57 303 3.5 5.2 0.00 0.00 0.00 38 1016.6
20260503212030 57 310 2.6 7.8 0.00 0.00 0.00 32 1016.5
20260503211526 57 306 0.9 5.2 0.00 0.00 0.00 33 1016.7
20260503211022 57 334 3.5 7.0 0.00 0.00 0.00 36 1016.5
20260503210519 57 306 1.7 3.5 0.00 0.00 0.00 33 1016.7
20260503210015 58 356 0.0 5.2 0.00 0.00 0.00 35 1016.8
20260503205512 57 307 0.9 1.7 0.00 0.00 0.00 33 1016.7
20260503205008 57 34 4.3 5.2 0.00 0.00 0.00 34 1016.7
20260503204505 56 305 0.0 1.7 0.00 0.00 0.00 31 1016.7
20260503204001 56 301 5.2 7.8 0.00 0.00 0.00 33 1016.8
20260503203459 56 295 2.6 9.6 0.00 0.00 0.00 35 1016.8
20260503202955 56 244 1.7 11.3 0.00 0.00 0.00 27 1017.1
20260503202454 57 293 5.2 7.0 0.00 0.00 0.00 28 1016.7
20260503201952 56 324 0.9 7.8 0.00 0.00 0.00 29 1016.7
20260503201449 56 215 3.5 8.7 0.00 0.00 0.00 31 1017.1
20260503200946 56 313 2.6 3.5 0.00 0.00 0.00 31 1017.1
20260503200443 56 3 4.3 8.7 0.00 0.00 0.00 33 1017.1
20260503195940 56 284 2.6 3.5 0.00 0.00 0.00 30 1017.2
20260503195437 57 251 2.6 6.1 0.00 0.00 0.00 31 1017.3
20260503194933 56 241 3.5 5.2 0.00 0.00 0.00 31 1017.4
20260503194430 56 152 2.6 5.2 0.00 0.00 0.00 38 1017.4
20260503193926 56 187 3.5 5.2 0.00 0.00 0.00 39 1017.4
20260503193421 55 308 0.0 12.2 0.00 0.00 0.00 37 1017.5
20260503192917 55 298 3.5 7.8 0.00 0.00 0.00 34 1017.6
20260503192414 56 277 7.0 13.0 0.00 0.00 0.00 33 1017.6
20260503191909 56 325 3.5 5.2 0.00 0.00 0.00 34 1017.6
20260503191408 55 313 1.7 7.8 0.00 0.00 0.00 34 1017.8
20260503190903 55 278 5.2 12.2 0.00 0.00 0.00 33 1017.6
20260503190401 55 29 2.6 3.5 0.00 0.00 0.00 35 1017.8
20260503185857 54 41 3.5 5.2 0.00 0.00 0.00 37 1017.7
20260503185354 54 20 5.2 7.8 0.00 0.00 0.00 37 1018.0
20260503184854 54 29 4.3 7.8 0.00 0.00 0.00 38 1018.0
20260503184350 54 282 4.3 9.6 0.00 0.00 0.00 33 1018.3
20260503183845 54 270 4.3 6.1 0.00 0.00 0.00 31 1018.0
20260503183343 53 278 0.9 2.6 0.00 0.00 0.00 40 1018.2
20260503182840 54 276 1.7 7.0 0.00 0.00 0.00 35 1018.2
20260503182340 53 317 4.3 8.7 0.00 0.00 0.00 36 1018.3
20260503181836 53 295 0.9 5.2 0.00 0.00 0.00 41 1018.6
20260503181333 53 273 2.6 7.8 0.00 0.00 0.00 35 1018.7
20260503180829 54 17 1.7 5.2 0.00 0.00 0.00 31 1018.6
20260503180328 53 13 3.5 7.0 0.00 0.00 0.00 36 1018.5
20260503175824 53 41 6.1 7.8 0.00 0.00 0.00 41 1018.7
20260503175322 53 74 1.7 8.7 0.00 0.00 0.00 35 1018.8
20260503174817 54 311 4.3 6.1 0.00 0.00 0.00 35 1018.6
20260503174316 52 286 1.7 6.1 0.00 0.00 0.00 39 1018.8
20260503173811 51 129 5.2 7.0 0.00 0.00 0.00 36 1018.7
20260503173307 52 292 6.1 9.6 0.00 0.00 0.00 36 1018.6
20260503172804 52 217 0.9 3.5 0.00 0.00 0.00 34 1018.9
20260503172302 51 37 0.9 6.1 0.00 0.00 0.00 38 1019.0
20260503171758 51 175 1.7 5.2 0.00 0.00 0.00 38 1018.9
20260503171255 51 167 5.2 7.8 0.00 0.00 0.00 39 1018.8
20260503170752 52 263 5.2 7.8 0.00 0.00 0.00 41 1018.9
20260503170248 51 1 0.9 6.1 0.00 0.00 0.00 36 1019.1
20260503160210 49 80 2.6 3.5 0.00 0.00 0.00 43 1019.3
20260503150641 47 358 0.0 6.1 0.00 0.00 0.00 50 1019.8
20260503150136 47 302 5.2 7.8 0.00 0.00 0.00 54 1019.9
20260503131030 41 80 2.6 3.5 0.00 0.00 0.00 54 1019.6
20260503130527 41 59 1.7 9.6 0.00 0.00 0.00 55 1019.4
20260503110418 29 303 0.9 0.9 0.00 0.00 0.00 86 1018.3
20260503090309 31 247 0.9 1.7 0.00 0.00 0.00 84 1017.1
20260503081242 33 268 0.0 0.0 0.00 0.00 0.00 83 1016.8
20260503080737 32 16 3.5 7.8 0.00 0.00 0.00 77 1016.8
20260503080236 32 273 0.9 1.7 0.00 0.00 0.00 82 1016.8
20260503072712 34 303 0.9 1.7 0.00 0.00 0.00 77 1016.6
20260503072209 36 281 0.0 1.7 0.00 0.00 0.00 75 1016.5
20260503071705 35 276 2.6 3.5 0.00 0.00 0.00 70 1016.6
20260503071202 35 241 1.7 2.6 0.00 0.00 0.00 77 1016.3
20260503070659 35 262 2.6 2.6 0.00 0.00 0.00 75 1016.3
20260503070157 35 272 1.7 1.7 0.00 0.00 0.00 76 1016.2
20260503060121 36 319 0.0 0.9 0.00 0.00 0.00 81 1016.5
20260503055113 37 255 1.7 1.7 0.00 0.00 0.00 77 1016.2
20260503054608 37 256 0.9 0.9 0.00 0.00 0.00 78 1016.2
20260503054106 37 248 0.0 0.9 0.00 0.00 0.00 74 1016.1
20260503053604 37 251 1.7 1.7 0.00 0.00 0.00 74 1016.3
20260503053102 37 266 0.0 1.7 0.00 0.00 0.00 73 1016.0
20260503052558 37 268 0.9 1.7 0.00 0.00 0.00 75 1016.2
20260503052054 37 246 1.7 1.7 0.00 0.00 0.00 73 1016.1
20260503051550 37 256 1.7 1.7 0.00 0.00 0.00 75 1016.1
20260503051048 37 272 1.7 1.7 0.00 0.00 0.00 73 1016.3
20260503050543 37 359 0.9 2.6 0.00 0.00 0.00 68 1016.2
20260503050041 38 249 0.9 0.9 0.00 0.00 0.00 67 1016.0
20260503045538 38 18 2.6 3.5 0.00 0.00 0.00 68 1016.2
20260503045035 38 295 1.7 2.6 0.00 0.00 0.00 67 1015.9
20260503044532 38 275 1.7 2.6 0.00 0.00 0.00 72 1016.0
20260503044030 38 245 1.7 2.6 0.00 0.00 0.00 71 1016.1
20260503043525 38 277 1.7 2.6 0.00 0.00 0.00 67 1016.3
20260503043022 38 279 1.7 1.7 0.00 0.00 0.00 69 1016.0
20260503042519 39 244 1.7 2.6 0.00 0.00 0.00 71 1015.9
20260503042015 40 273 1.7 1.7 0.00 0.00 0.00 69 1016.0
20260503041512 39 262 2.6 3.5 0.00 0.00 0.00 68 1016.0
20260503041010 40 311 0.9 2.6 0.00 0.00 0.00 63 1015.9
20260503040507 39 256 2.6 3.5 0.00 0.00 0.00 72 1016.1
20260503040004 39 264 1.7 1.7 0.00 0.00 0.00 69 1016.0
20260503035501 39 285 0.9 0.9 0.00 0.00 0.00 66 1016.0
20260503034959 40 279 0.9 1.7 0.00 0.00 0.00 69 1016.0
20260503034456 39 257 0.9 2.6 0.00 0.00 0.00 68 1016.1
20260503033953 38 272 2.6 2.6 0.00 0.00 0.00 72 1016.0